Location: ???????
(54.9567°N, 38.2836°E)
Time: 21:49:23
(UTC+00:00)

Cosmos 1461 - Pass Details

Date: 14 April 2024
Orbit: 499 x 586 km, 65.0° (Epoch: 22 May)

Event Time Altitude Azimuth Distance (km) Brightness Sun altitude
Rises 00:58:25 0° 308° (NW) 2,633 6.1 -11.9°
Reaches altitude 10° 01:00:52 10° 295° (WNW) 1,730 5.1 -11.6°
Maximum altitude 01:04:01 24° 240° (WSW) 1,072 3.7 -11.3°
Drops below altitude 10° 01:07:07 10° 185° (S) 1,703 5.0 -10.9°
Sets 01:09:31 0° 171° (S) 2,580 6.0 -10.6°
